STARLINK-32474, 61260

Orbit data source: Space-Track

STARLINK-32474, 61260 is a payload satellite owned by SpaceX/Seattle (US) in LEO that was launched on Wed, 25 Sep 2024 UTC via an FALCON 9 launch vehicle from the Air Force Western Test Range (AFWTR). Payload-class satellites include a variety of spacecraft equipped with specific instruments for various scientific and technological missions. These include communications satellites like Starlink; space stations such as the ISS; scientific satellites like the Hubble; Earth observation satellites from companies like Planet Labs, Umbra, and HawkEye 360; GPS; miniature CubeSats for education and research; and military/defense satellites.

Loading next visibility...
Identifier
61260, 2024-175T
Orbit
LEO
Country
Flag of USUS
Related business
Manufacturer
SpaceX/Seattle
Mission
Operational Commercial Communications
Bus & Motor
STARLINK V2M, Unknown motor
Mass
730 kg wet, ~700 kg dry
Launch date (UTC)
2024-09-25 (2 years ago)
Launch vehicle
FALCON 9
Launch site
Air Force Western Test Range (AFWTR)
Object type
Payload
Rocket body
Debris
Shape & HBR
Box + 2 Pan, 17.7 m
Radar Cross Section
33.884 m², Large (>1 m²)

Expand to show TLE details & history
Last TLE update: 16 hours ago

TLE from 16 hours ago
0 STARLINK-32474
1 61260U 24175T   26256.12589364  .00001588  00000-0  58126-4 0  9991
2 61260  53.1600  40.3849 0001127  81.8274 278.2856 15.34396574110198
Epoch: 2026-09-13T03:01Z
TLE epoch observation values (Epoch: 2026-09-13T03:01:17.210Z)
Latitude
-0.00005°
Longitude
2.93813°
Altitude
463.504 km
Speed
7.636 km/s
True Right ascension
02h 41m 32s
True Declination
0° 00' 00"
Sunlit
Object was in full shadow at epoch
Visualization orbit readout
Latitude
Unknown
Longitude
Unknown
Altitude
Unknown
Speed
Unknown
Apparent Right ascension
Unknown
Apparent Declination
Unknown
Sunlit
N/A
Visualization observer readout
Local Sidereal Time
11:20:14
Azimuth
Unknown
Elevation
Unknown
Doppler factor
Unknown
Orbital elements
Apogee altitude
463.741 km
Perigee altitude
462.199 km
Semi-major axis
6,841.107 km
Eccentricity
0.00011
Inclination
53.16°
RAAN
40.3849°
Arg. of periapsis
81.8274°
True anomaly
278.27282°
Mean anomaly
278.2856°
Eccentric anomaly
278.27921°
Mean motion
3.83578 °/min
Orbital period
93.85 mins
BSTAR
0.000058126
Loading maneuver chart data...
Computing Atmospheric mass density...
Loading historical data...
Loading historical data...
Loading historical data...
Loading historical data...
Loading historical data...
Loading historical data...
Loading historical data...

Documentation

Showing up to 5 results
|